GW0609 Weather Reports


time (UTC)temp
C
wind
direction
speed
KPH
gust
KPH
rain 1hr
cm
rain 24hr
cm
rain mn
cm
humidity
%
barometer
mb
20260504030049 7 0 0.0 0.0 0.00 0.00 0.00 64 1014.6
20260504024549 7 0 0.0 0.0 0.00 0.00 0.00 62 1014.6
20260504023043 7 0 0.0 0.0 0.00 0.00 0.00 63 1014.6
20260504021543 7 0 0.0 0.0 0.00 0.00 0.00 61 1014.8
20260504020039 8 0 0.0 3.2 0.00 0.00 0.00 60 1014.6
20260504014540 8 0 0.0 3.2 0.00 0.00 0.00 59 1014.6
20260504013045 8 0 0.0 1.6 0.00 0.00 0.00 59 1014.4
20260504011545 8 0 0.0 3.2 0.00 0.00 0.00 58 1014.3
20260504010044 9 0 0.0 4.8 0.00 0.00 0.00 56 1014.3
20260504004542 9 140 0.0 6.4 0.00 0.03 0.00 55 1014.3
20260504003045 10 0 0.0 11.3 0.00 0.03 0.00 54 1014.2
20260504001539 10 259 0.0 3.2 0.00 0.03 0.00 54 1014.2
20260504000106 11 0 1.6 12.9 0.00 0.03 0.00 51 1014.2
20260503234544 11 248 1.6 9.7 0.00 0.03 0.00 50 1014.1
20260503233043 12 272 0.0 9.7 0.00 0.03 0.00 48 1014.2
20260503231542 12 273 4.8 14.5 0.00 0.03 0.00 47 1014.2
20260503230040 12 292 3.2 12.9 0.00 0.03 0.00 46 1014.2
20260503224538 12 279 4.8 22.5 0.00 0.03 0.00 47 1014.2
20260503223045 13 195 4.8 17.7 0.00 0.03 0.00 47 1014.2
20260503221541 12 0 3.2 17.7 0.00 0.03 0.00 47 1014.2
20260503220046 12 266 4.8 20.9 0.00 0.03 0.00 49 1014.1
20260503214540 13 275 8.0 20.9 0.00 0.03 0.00 49 1014.2
20260503213039 13 286 6.4 19.3 0.00 0.03 0.00 45 1014.2
20260503211544 12 265 3.2 12.9 0.00 0.03 0.00 51 1014.3
20260503210043 12 265 8.0 25.7 0.00 0.03 0.00 47 1014.3
20260503204546 13 261 6.4 17.7 0.00 0.03 0.00 48 1014.2
20260503203044 12 259 6.4 20.9 0.00 0.03 0.00 47 1014.4
20260503201544 13 306 9.7 20.9 0.00 0.03 0.00 46 1014.5
20260503200039 12 237 8.0 17.7 0.00 0.03 0.00 48 1014.7
20260503194547 12 246 11.3 24.1 0.00 0.03 0.00 48 1015.0
20260503193043 13 306 4.8 19.3 0.00 0.03 0.00 48 1015.0
20260503191544 13 288 6.4 27.4 0.00 0.03 0.00 48 1015.1
20260503190045 13 268 8.0 25.7 0.00 0.03 0.00 50 1015.3
20260503184600 13 42 6.4 19.3 0.00 0.03 0.00 52 1015.5
20260503183040 12 298 9.7 24.1 0.00 0.03 0.00 48 1015.7
20260503181551 12 275 4.8 22.5 0.00 0.03 0.00 51 1015.7
20260503180045 12 284 9.7 22.5 0.00 0.03 0.00 50 1015.8
20260503174545 12 294 6.4 20.9 0.00 0.03 0.00 54 1015.8
20260503173041 11 277 8.0 24.1 0.00 0.03 0.00 48 1016.2
20260503171603 11 263 8.0 25.7 0.00 0.03 0.00 48 1016.4
20260503081545 0 0 0.0 0.0 0.00 0.03 0.00 84 1016.1
20260503071558 0 0 0.0 1.6 0.00 0.03 0.00 83 1015.8
20260503054557 1 258 1.6 4.8 0.00 0.03 0.00 80 1015.9
20260503053043 1 261 1.6 6.4 0.00 0.03 0.00 79 1015.9
20260503051545 1 279 0.0 4.8 0.00 0.03 0.00 79 1016.1
20260503050046 1 257 0.0 4.8 0.00 0.03 0.00 79 1016.1
20260503044549 2 261 1.6 6.4 0.00 0.03 0.00 79 1016.2
20260503043050 2 275 1.6 4.8 0.00 0.03 0.00 79 1016.2
20260503041547 2 281 1.6 3.2 0.00 0.03 0.00 78 1016.2
20260503040045 2 257 1.6 9.7 0.00 0.03 0.00 78 1016.2
20260503034542 2 281 1.6 6.4 0.00 0.03 0.03 77 1016.2
20260503033044 2 281 3.2 9.7 0.00 0.03 0.03 77 1016.2
20260503031540 2 243 3.2 9.7 0.00 0.03 0.03 77 1016.3